Palmer, AK

6:22 AM AKDT on April 30, 2017 (GMT -0800)
Palmer Municipal

Weather History for PAAQ - December, 2012

Change the Weather History Date:

Wednesday, December 5, 2012

  Actual Average Record
Temperature  
Mean Temperature -6 °F -  
Max Temperature -4 °F 20 °F 43 °F (1969)
Min Temperature -9 °F 4 °F -18 °F (1967)
Degree Days  
Heating Degree Days 72    
Moisture  
Dew Point -12 °F    
Average Humidity 79    
Maximum Humidity 87    
Minimum Humidity 68    
Precipitation  
Precipitation 0.00 in - - ()
Sea Level Pressure  
Sea Level Pressure 29.57 in    
Wind  
Wind Speed 0 mph (East)    
Max Wind Speed 4 mph    
Max Gust Speed -    
Visibility 10 miles    
Events      
Averages and records for this station are not official NWS values.
T = Trace of Precipitation, MM = Missing Value Source: NWS Daily Summary

Daily Weather History Graph

Daily Weather History Graph

Search for Another Location

Airport or City:

Trip Planner

Search our weather history database for the weather conditions in past years. The results will help you decide how hot, cold, wet, or windy it might be!

Date:

Astronomy

Dec. 05, 2012 Rise Set
Actual Time 9:55 AM AKST 3:38 PM AKST
Civil Twilight 8:54 AM AKST 4:39 PM AKST
Nautical Twilight 7:55 AM AKST 5:39 PM AKST
Astronomical Twilight 7:01 AM AKST 6:32 PM AKST
Moon No Moon Rise 12:51 PM AKST (12/5)
Length of Visible Light 7h 45m
Length of Day
5h 43m
Waning Gibbous, 58% of the Moon is Illuminated
Dec 5
Waning Gibbous
Dec 6
Last Quarter
Dec 12
New
Dec 19
First Quarter
Dec 28
Full

Hourly Weather History & Observations

Time (AKST) Temp. Windchill Dew Point Humidity Pressure Visibility Wind Dir Wind Speed Gust Speed Precip Events Conditions
12:53 AM -7.1 °F - -14.1 °F 72% 29.52 in 10.0 mi Calm Calm - N/A   Clear
1:53 AM -6.0 °F - -9.0 °F 87% 29.53 in 10.0 mi Calm Calm - N/A   Clear
2:53 AM -8.0 °F - -13.0 °F 79% 29.53 in 10.0 mi Calm Calm - N/A   Clear
3:53 AM -9.0 °F - -13.0 °F 83% 29.54 in 10.0 mi Calm Calm - N/A   Clear
5:53 AM -9.9 °F - -15.0 °F 78% 29.55 in 10.0 mi Calm Calm - N/A   Clear
6:53 AM -9.9 °F - -16.1 °F 74% 29.55 in 10.0 mi Calm Calm - N/A   Clear
7:53 AM -9.0 °F - -14.1 °F 79% 29.55 in 10.0 mi Calm Calm - N/A   Clear
8:53 AM -9.0 °F - -14.1 °F 79% 29.55 in 10.0 mi Calm Calm - N/A   Clear
9:53 AM -9.0 °F - -15.0 °F 75% 29.56 in 10.0 mi Calm Calm - N/A   Clear
10:53 AM -9.0 °F - -15.0 °F 75% 29.57 in 10.0 mi Calm Calm - N/A   Clear
11:53 AM -7.1 °F - -13.0 °F 75% 29.57 in 10.0 mi Calm Calm - N/A   Clear
12:53 PM -4.0 °F - -8.0 °F 83% 29.57 in 10.0 mi Calm Calm - N/A   Clear
1:53 PM -4.0 °F - -7.1 °F 87% 29.59 in 10.0 mi Calm Calm - N/A   Clear
2:53 PM -5.1 °F - -9.9 °F 80% 29.59 in 10.0 mi Calm Calm - N/A   Clear
3:53 PM -7.1 °F -15.9 °F -11.0 °F 83% 29.58 in 10.0 mi East 3.5 mph - N/A   Clear
4:53 PM -6.0 °F - -11.0 °F 79% 29.59 in 10.0 mi Calm Calm - N/A   Clear
5:53 PM -6.0 °F - -9.9 °F 83% 29.59 in 10.0 mi Calm Calm - N/A   Clear
6:53 PM -7.1 °F - -13.0 °F 75% 29.59 in 10.0 mi Calm Calm - N/A   Clear
7:53 PM -8.0 °F - -11.0 °F 86% 29.59 in 10.0 mi Calm Calm - N/A   Clear
8:53 PM -6.0 °F - -11.9 °F 75% 29.60 in 10.0 mi Calm Calm - N/A   Clear
9:53 PM -8.0 °F - -11.9 °F 83% 29.60 in 9.0 mi Calm Calm - N/A   Clear
10:53 PM -7.1 °F - -15.0 °F 68% 29.61 in 9.0 mi Calm Calm - N/A   Partly Cloudy
11:53 PM -5.1 °F - -9.0 °F 83% 29.62 in 10.0 mi Calm Calm - N/A   Clear